Location: Eboldshausen
(51.7766°N, 10.0050°E)
Time: 17:16:43
(UTC+00:00)

Cosmos 44 Rocket - Pass Details

Date: 15 November 2025
Orbit: 637 x 741 km, 65.1° (Epoch: 10 December)

Event Time Altitude Azimuth Distance (km) Brightness Sun altitude
Rises 18:00:24 0° 212° (SSW) 2,990 7.0 -23.1°
Reaches altitude 10° 18:02:41 10° 210° (SSW) 2,097 6.1 -23.5°
Enters shadow 18:07:15 70° 145° (SE) 733 3.2 -24.2°
